Darstellungsparameter: Aktuell verwendete Einstellungen:
Skalierung der Graphiken ... ?
xyx+y,   Skalierungsfaktor:      Skalierung: Modus: x, Faktor: 1
Darstellungszeitraum ... ?
Vom - - bis: - -   Zeitraum: 03.02.2021 - 03.03.2021
Min/Max/Avg-Anzeige ... ?
Zeige MMA aktuell
Zeige MMA Monat
Zeige MMA alles
Zeige --A aktuell
Zeige --A Monat
Zeige --A alles
Keine MMA-Anzeige
MMA:
Average (ber die Originaldaten)
MMA-Basis: 23.02.2003 - 03.08.2020
Quicknavigation für Darstellung... ?
Tage:      1T, 2T, 3T, 5T -1T -2T -3T -5T +1T +2T +3T +5T
Wochen: 1W, 2W, 3W -1W -2W -3W +1W +2W +3W
Monate: 1M, 3M, 6M -1M -3M -6M +1M +3M +6M
Jahre:    1J, 3J, 5J, 10J -1J -3J -5J -10J +1J +3J +5J +10J
Nutze für die Darstellung ... ?
Originaldaten oder ...
Mittelwerte Minima Maxima auf...
Stundenbasis Tagesbasis Wochenbasis
Monatsbasis Jahresbasis      Datenbasis: Mittelwerte auf Stundenbasis
Darstellen als:
Statistik (Auto) Statistik J:M      Darstellung:

Der gewünschte Datumsbereich war nicht gültig/verfügbar und wurde korrigiert....
Das angegebene Enddatum (17.07.2021 23:59:59) liegt in der Zukunft.


Zur Graphik,    zurück zur Übersicht aller Sensoren.
 
Tabellarische Datenbersicht: ?
 
Sensor: Nr:Datum:Temp:Abs-Feuchte:Windchill:Wind:
Aussen-T/F 1 03-02-2021 00:00:00 10.26667 C 9.08 g/m*3 9.25 C 8.33333 km/h
2 03-02-2021 01:00:00 9.65833 C 8.7 g/m*3 9.66 C 4.4 km/h
3 03-02-2021 02:00:00 9.06667 C 8.47 g/m*3 9.07 C 2.66667 km/h
4 03-02-2021 03:00:00 8.95 C 8.44 g/m*3 8.95 C 2.13333 km/h
5 03-02-2021 04:00:00 8.33333 C 8.11 g/m*3 8.33 C 0 km/h
6 03-02-2021 05:00:00 8 C 7.94 g/m*3 8 C 0 km/h
7 03-02-2021 06:00:00 7.825 C 7.9 g/m*3 7.83 C 0 km/h
8 03-02-2021 07:00:00 8 C 8.02 g/m*3 8 C 0 km/h
9 03-02-2021 08:00:00 8.225 C 8.14 g/m*3 8.23 C 0 km/h
10 03-02-2021 09:00:00 9.05833 C 8.64 g/m*3 9.06 C 0 km/h
11 03-02-2021 10:00:00 9.83333 C 9.1 g/m*3 9.83 C 0 km/h
12 03-02-2021 11:00:00 10.2 C 9.27 g/m*3 10.2 C 1.2 km/h
13 03-02-2021 12:00:00 10.56667 C 9.5 g/m*3 10.57 C 2.54167 km/h
14 03-02-2021 13:00:00 11.55833 C 9.76 g/m*3 11.56 C 18.9 km/h
15 03-02-2021 14:00:00 12.11667 C 9.7 g/m*3 12.12 C 15.3 km/h
16 03-02-2021 15:00:00 10.89167 C 9.28 g/m*3 8.87 C 16.25 km/h
17 03-02-2021 16:00:00 11.26667 C 8.79 g/m*3 11.27 C 18.65 km/h
18 03-02-2021 17:00:00 10.45 C 8.66 g/m*3 8.81 C 12.33333 km/h
19 03-02-2021 18:00:00 9.81667 C 8.65 g/m*3 9.25 C 6.025 km/h
20 03-02-2021 19:00:00 9.75833 C 8.69 g/m*3 8.22 C 10.75 km/h
21 03-02-2021 20:00:00 10.175 C 8.84 g/m*3 8.83 C 10.09167 km/h
22 03-02-2021 21:00:00 9.95 C 8.69 g/m*3 7.98 C 13.96667 km/h
23 03-02-2021 22:00:00 9.6 C 8.44 g/m*3 7.26 C 16.36667 km/h
24 03-02-2021 23:00:00 9.7 C 8.01 g/m*3 7.31 C 17.03333 km/h
25 04-02-2021 00:00:00 9.36667 C 7.69 g/m*3 6.98 C 16.23333 km/h
Sensor: Nr:Datum:Temp:Abs-Feuchte:Windchill:Wind:
Aussen-T/F 26 04-02-2021 01:00:00 8.76667 C 7.53 g/m*3 6.96 C 11.15833 km/h
27 04-02-2021 02:00:00 8.03333 C 7.3 g/m*3 6.42 C 9.275 km/h
28 04-02-2021 03:00:00 7.51667 C 7 g/m*3 5.57 C 10.5 km/h
29 04-02-2021 04:00:00 7.175 C 6.75 g/m*3 4.56 C 14.09167 km/h
30 04-02-2021 05:00:00 6.58333 C 6.57 g/m*3 4.7 C 9.28333 km/h
31 04-02-2021 06:00:00 6.23333 C 6.63 g/m*3 4.44 C 8.58333 km/h
32 04-02-2021 07:00:00 6.4 C 6.65 g/m*3 4.61 C 8.71667 km/h
33 04-02-2021 08:00:00 5.775 C 6.45 g/m*3 4.32 C 6.98333 km/h
34 04-02-2021 09:00:00 5.15 C 6.33 g/m*3 5.15 C 3.33333 km/h
35 04-02-2021 10:00:00 5.25 C 6.46 g/m*3 5.25 C 3.6 km/h
36 04-02-2021 11:00:00 6.6 C 6.82 g/m*3 4.84 C 8.725 km/h
37 04-02-2021 12:00:00 7.76667 C 6.91 g/m*3 5.97 C 9.94167 km/h
38 04-02-2021 13:00:00 8.01667 C 6.84 g/m*3 6.89 C 7.10833 km/h
39 04-02-2021 14:00:00 8.89167 C 6.91 g/m*3 7.94 C 6.975 km/h
40 04-02-2021 15:00:00 8.41667 C 6.94 g/m*3 8.42 C 4.13333 km/h
41 04-02-2021 16:00:00 6.84167 C 6.77 g/m*3 5.97 C 5.6 km/h
42 04-02-2021 17:00:00 6.08333 C 6.67 g/m*3 6.08 C 4.66667 km/h
43 04-02-2021 18:00:00 5.66667 C 6.56 g/m*3 5.67 C 2.66667 km/h
44 04-02-2021 19:00:00 5.25833 C 6.43 g/m*3 5.26 C 0.26667 km/h
45 04-02-2021 20:00:00 4.7 C 6.26 g/m*3 4.7 C 0.26667 km/h
46 04-02-2021 21:00:00 4.78333 C 6.36 g/m*3 4.78 C 0.4 km/h
47 04-02-2021 22:00:00 4.825 C 6.38 g/m*3 4.83 C 0.13333 km/h
48 04-02-2021 23:00:00 5.075 C 6.52 g/m*3 5.08 C 0 km/h
49 05-02-2021 00:00:00 5.25 C 6.63 g/m*3 5.25 C 0 km/h
50 05-02-2021 01:00:00 5.3 C 6.64 g/m*3 5.3 C 0 km/h
Sensor: Nr:Datum:Temp:Abs-Feuchte:Windchill:Wind:
Aussen-T/F 51 05-02-2021 02:00:00 5.26667 C 6.64 g/m*3 5.27 C 0 km/h
52 05-02-2021 03:00:00 5.15 C 6.57 g/m*3 5.15 C 0 km/h
53 05-02-2021 04:00:00 4.86667 C 6.43 g/m*3 4.87 C 0 km/h
54 05-02-2021 05:00:00 4.625 C 6.34 g/m*3 4.63 C 1.06667 km/h
55 05-02-2021 06:00:00 4.95 C 6.5 g/m*3 4.95 C 0 km/h
56 05-02-2021 07:00:00 5.2 C 6.61 g/m*3 5.2 C 0 km/h
57 05-02-2021 08:00:00 5.575 C 6.78 g/m*3 5.58 C 0 km/h
58 05-02-2021 09:00:00 6.025 C 7.02 g/m*3 6.03 C 0 km/h
59 05-02-2021 10:00:00 6.625 C 7.31 g/m*3 6.63 C 0 km/h
60 05-02-2021 11:00:00 7.16667 C 7.54 g/m*3 7.17 C 0 km/h
61 05-02-2021 12:00:00 7.6 C 7.73 g/m*3 7.6 C 0 km/h
62 05-02-2021 13:00:00 7.96667 C 7.92 g/m*3 7.97 C 0 km/h
63 05-02-2021 14:00:00 8.50833 C 8.25 g/m*3 8.51 C 0 km/h
64 05-02-2021 15:00:00 9.13333 C 8.6 g/m*3 9.13 C 2 km/h
65 05-02-2021 16:00:00 9.25833 C 8.6 g/m*3 9.26 C 0 km/h
66 05-02-2021 17:00:00 8.25833 C 8 g/m*3 8.26 C 2.26667 km/h
67 05-02-2021 18:00:00 6.98333 C 7.39 g/m*3 6.98 C 3.33333 km/h
68 05-02-2021 19:00:00 7.10833 C 7.49 g/m*3 7.11 C 0.66667 km/h
69 05-02-2021 20:00:00 6.125 C 7.03 g/m*3 6.13 C 0.13333 km/h
70 05-02-2021 21:00:00 5.3 C 6.67 g/m*3 5.3 C 0 km/h
71 05-02-2021 22:00:00 5.825 C 6.96 g/m*3 5.83 C 0 km/h
72 05-02-2021 23:00:00 6.18333 C 7.13 g/m*3 6.18 C 0 km/h
73 06-02-2021 00:00:00 6.15 C 7.11 g/m*3 6.15 C 0 km/h
74 06-02-2021 01:00:00 6.025 C 7.05 g/m*3 6.03 C 0.8 km/h
75 06-02-2021 02:00:00 6.325 C 7.19 g/m*3 6.33 C 0.8 km/h
Sensor: Nr:Datum:Temp:Abs-Feuchte:Windchill:Wind:
Aussen-T/F 76 06-02-2021 03:00:00 6.20833 C 7.14 g/m*3 6.21 C 0 km/h
77 06-02-2021 04:00:00 6.10833 C 7.09 g/m*3 6.11 C 0 km/h
78 06-02-2021 05:00:00 6.13333 C 7.1 g/m*3 6.13 C 0.13333 km/h
79 06-02-2021 06:00:00 6.2 C 7.13 g/m*3 6.2 C 0.13333 km/h
80 06-02-2021 07:00:00 6.2 C 7.13 g/m*3 6.2 C 0 km/h
81 06-02-2021 08:00:00 6.14167 C 7.11 g/m*3 6.14 C 1.46667 km/h
82 06-02-2021 09:00:00 6.04167 C 7.06 g/m*3 6.04 C 4.29167 km/h
83 06-02-2021 10:00:00 6.20833 C 7.14 g/m*3 6.21 C 1.86667 km/h
84 06-02-2021 11:00:00 6.21667 C 7.14 g/m*3 6.22 C 3.20833 km/h
85 06-02-2021 12:00:00 6.04167 C 7.05 g/m*3 6.04 C 4.83333 km/h
86 06-02-2021 13:00:00 5.78333 C 6.85 g/m*3 4.04 C 8.05 km/h
87 06-02-2021 14:00:00 5.45833 C 6.65 g/m*3 5.46 C 4.825 km/h
88 06-02-2021 15:00:00 5.11667 C 6.49 g/m*3 3.63 C 6.71667 km/h
89 06-02-2021 16:00:00 4.66667 C 6.25 g/m*3 3.16 C 6.56667 km/h
90 06-02-2021 17:00:00 4.16667 C 6.06 g/m*3 2.37 C 7.25 km/h
91 06-02-2021 18:00:00 3.675 C 5.91 g/m*3 1.12 C 9.80833 km/h
92 06-02-2021 19:00:00 3.28333 C 5.74 g/m*3 -0.14 C 13.7 km/h
93 06-02-2021 20:00:00 3.05833 C 5.67 g/m*3 1.39 C 6.3 km/h
94 06-02-2021 21:00:00 2.69167 C 5.53 g/m*3 1.06 C 6.03333 km/h
95 06-02-2021 22:00:00 2.39167 C 5.42 g/m*3 -0.75 C 11.28333 km/h
96 06-02-2021 23:00:00 2.3 C 5.39 g/m*3 -0.74 C 10.74167 km/h
97 07-02-2021 00:00:00 2.325 C 5.4 g/m*3 -1.71 C 15.96667 km/h
98 07-02-2021 01:00:00 2.4 C 5.42 g/m*3 -1.05 C 12.75833 km/h
99 07-02-2021 02:00:00 2.325 C 5.4 g/m*3 -0.1 C 8.30833 km/h
100 07-02-2021 03:00:00 2.13333 C 5.33 g/m*3 -0.65 C 9.55 km/h
Sensor: Nr:Datum:Temp:Abs-Feuchte:Windchill:Wind:
Aussen-T/F 101 07-02-2021 04:00:00 1.96667 C 5.31 g/m*3 -1.14 C 10.75 km/h
102 07-02-2021 05:00:00 2.025 C 5.34 g/m*3 0.3 C 6.01667 km/h
103 07-02-2021 06:00:00 2 C 5.33 g/m*3 0.32 C 5.89167 km/h
104 07-02-2021 07:00:00 1.94167 C 5.31 g/m*3 0.58 C 5.08333 km/h
105 07-02-2021 08:00:00 1.75833 C 5.25 g/m*3 -1.06 C 9.4 km/h
106 07-02-2021 09:00:00 1.7 C 5.23 g/m*3 0.13 C 5.5 km/h
107 07-02-2021 10:00:00 1.73333 C 5.24 g/m*3 0.29 C 5.20833 km/h
108 07-02-2021 11:00:00 1.81667 C 5.27 g/m*3 0.05 C 6.025 km/h
109 07-02-2021 12:00:00 1.66667 C 5.18 g/m*3 1.67 C 4.54167 km/h
110 07-02-2021 13:00:00 1.275 C 5.03 g/m*3 -0.36 C 5.5 km/h
111 07-02-2021 14:00:00 1.14167 C 5.01 g/m*3 1.14 C 4.00833 km/h
112 07-02-2021 15:00:00 0.99167 C 4.93 g/m*3 0.99 C 2.66667 km/h
113 07-02-2021 16:00:00 0.825 C 4.87 g/m*3 0.83 C 2.4 km/h
114 07-02-2021 17:00:00 0.575 C 4.79 g/m*3 -0.98 C 5.08333 km/h
115 07-02-2021 18:00:00 0.24167 C 4.68 g/m*3 -1.35 C 5.08333 km/h
116 07-02-2021 19:00:00 0.00833 C 4.57 g/m*3 0.01 C 4.825 km/h
117 07-02-2021 20:00:00 -0.35 C 4.45 g/m*3 -2.6 C 6.43333 km/h
118 07-02-2021 21:00:00 -0.80833 C 4.28 g/m*3 -3.57 C 7.65833 km/h
119 07-02-2021 22:00:00 -1.34167 C 4.1 g/m*3 -4.34 C 8.06667 km/h
120 07-02-2021 23:00:00 -1.81667 C 3.96 g/m*3 -4.35 C 6.56667 km/h
121 08-02-2021 00:00:00 -2.03333 C 3.86 g/m*3 -4.2 C 5.63333 km/h
122 08-02-2021 01:00:00 -2.28333 C 3.76 g/m*3 -4.72 C 6.15833 km/h
123 08-02-2021 02:00:00 -2.6 C 3.63 g/m*3 -5.03 C 6.03333 km/h
124 08-02-2021 03:00:00 -2.84167 C 3.56 g/m*3 -5.24 C 5.89167 km/h
125 08-02-2021 04:00:00 -3.24167 C 3.44 g/m*3 -5.38 C 5.225 km/h
Sensor: Nr:Datum:Temp:Abs-Feuchte:Windchill:Wind:
Aussen-T/F 126 08-02-2021 05:00:00 -3.53333 C 3.34 g/m*3 -6.81 C 7.775 km/h
127 08-02-2021 06:00:00 -3.70833 C 3.27 g/m*3 -7.07 C 7.925 km/h
128 08-02-2021 07:00:00 -3.8 C 3.24 g/m*3 -6.64 C 6.56667 km/h
129 08-02-2021 08:00:00 -3.93333 C 3.2 g/m*3 -6.74 C 6.44167 km/h
130 08-02-2021 09:00:00 -3.825 C 3.23 g/m*3 -7.3 C 8.2 km/h
131 08-02-2021 10:00:00 -3.63333 C 3.25 g/m*3 -7.35 C 9.00833 km/h
132 08-02-2021 11:00:00 -3.38333 C 3.29 g/m*3 -7.3 C 9.81667 km/h
133 08-02-2021 12:00:00 -3.275 C 3.33 g/m*3 -6.65 C 8.18333 km/h
134 08-02-2021 13:00:00 -3.3 C 3.32 g/m*3 -6.63 C 8.05 km/h
135 08-02-2021 14:00:00 -3.28333 C 3.36 g/m*3 -3.28 C 4.95 km/h
136 08-02-2021 15:00:00 -3.28333 C 3.4 g/m*3 -5.49 C 5.34167 km/h
137 08-02-2021 16:00:00 -3.33333 C 3.39 g/m*3 -6.16 C 6.70833 km/h
138 08-02-2021 17:00:00 -3.51667 C 3.32 g/m*3 -6.08 C 6.025 km/h
139 08-02-2021 18:00:00 -3.925 C 3.26 g/m*3 -7.47 C 8.33333 km/h
140 08-02-2021 19:00:00 -4.08333 C 3.23 g/m*3 -4.08 C 4.80833 km/h
141 08-02-2021 20:00:00 -4.18333 C 3.15 g/m*3 -6.78 C 5.88333 km/h
142 08-02-2021 21:00:00 -4.3 C 3.07 g/m*3 -4.3 C 3.475 km/h
143 08-02-2021 22:00:00 -4.38333 C 3.04 g/m*3 -4.38 C 3.475 km/h
144 08-02-2021 23:00:00 -4.40833 C 3.06 g/m*3 -4.41 C 1.33333 km/h
145 09-02-2021 00:00:00 -4.55 C 3 g/m*3 -4.55 C 3.06667 km/h
146 09-02-2021 01:00:00 -4.65833 C 2.95 g/m*3 -4.66 C 2.4 km/h
147 09-02-2021 02:00:00 -4.8 C 2.92 g/m*3 -4.8 C 1.46667 km/h
148 09-02-2021 03:00:00 -4.8 C 2.94 g/m*3 -4.8 C 1.33333 km/h
149 09-02-2021 04:00:00 -4.85 C 2.96 g/m*3 -4.85 C 0.8 km/h
150 09-02-2021 05:00:00 -4.9 C 2.96 g/m*3 -4.9 C 1.06667 km/h
Sensor: Nr:Datum:Temp:Abs-Feuchte:Windchill:Wind:
Aussen-T/F 151 09-02-2021 06:00:00 -4.95833 C 2.96 g/m*3 -4.96 C 1.6 km/h
152 09-02-2021 07:00:00 -5.1 C 2.92 g/m*3 -5.1 C 2.66667 km/h
153 09-02-2021 08:00:00 -5.225 C 2.88 g/m*3 -5.23 C 1.46667 km/h
154 09-02-2021 09:00:00 -5.325 C 2.84 g/m*3 -5.33 C 2.13333 km/h
155 09-02-2021 10:00:00 -5.375 C 2.78 g/m*3 -5.38 C 3.73333 km/h
156 09-02-2021 11:00:00 -4.99167 C 2.63 g/m*3 -7.78 C 6.025 km/h
157 09-02-2021 12:00:00 -4.21667 C 2.67 g/m*3 -7.12 C 6.55 km/h
158 09-02-2021 13:00:00 -3.69167 C 2.71 g/m*3 -3.69 C 4.4 km/h
159 09-02-2021 14:00:00 -3.49167 C 2.65 g/m*3 -3.49 C 3.48333 km/h
160 09-02-2021 15:00:00 -3.325 C 2.67 g/m*3 -3.33 C 1.86667 km/h
161 09-02-2021 16:00:00 -3.45833 C 2.71 g/m*3 -6.57 C 7.375 km/h
162 09-02-2021 17:00:00 -3.88333 C 2.71 g/m*3 -8.02 C 10.23333 km/h
163 09-02-2021 18:00:00 -4.28333 C 2.6 g/m*3 -8.03 C 8.73333 km/h
164 09-02-2021 19:00:00 -4.45833 C 2.66 g/m*3 -7.8 C 7.525 km/h
165 09-02-2021 20:00:00 -4.75833 C 2.83 g/m*3 -4.76 C 2.4 km/h
166 09-02-2021 21:00:00 -5.35833 C 2.73 g/m*3 -8.84 C 7.51667 km/h
167 09-02-2021 22:00:00 -5.94167 C 2.53 g/m*3 -9.41 C 7.24167 km/h
168 09-02-2021 23:00:00 -6.64167 C 2.38 g/m*3 -9.74 C 6.15833 km/h
169 10-02-2021 00:00:00 -7.61667 C 2.23 g/m*3 -7.62 C 3.6 km/h
170 10-02-2021 01:00:00 -8.38333 C 2.16 g/m*3 -8.38 C 1.46667 km/h
171 10-02-2021 02:00:00 -9 C 2.13 g/m*3 -9 C 2.26667 km/h
172 10-02-2021 03:00:00 -8.85 C 2.14 g/m*3 -8.85 C 4.95833 km/h
173 10-02-2021 04:00:00 -9.15833 C 2.08 g/m*3 -9.16 C 2.8 km/h
174 10-02-2021 05:00:00 -9.09167 C 2.1 g/m*3 -9.09 C 4.00833 km/h
175 10-02-2021 06:00:00 -9.075 C 2.09 g/m*3 -9.07 C 3.06667 km/h
Sensor: Nr:Datum:Temp:Abs-Feuchte:Windchill:Wind:
Aussen-T/F 176 10-02-2021 07:00:00 -8.88333 C 2.15 g/m*3 -8.88 C 4.00833 km/h
177 10-02-2021 08:00:00 -8.58333 C 2.21 g/m*3 -8.58 C 4.55 km/h
178 10-02-2021 09:00:00 -8.14167 C 2.23 g/m*3 -12.27 C 7.91667 km/h
179 10-02-2021 10:00:00 -7.58333 C 2.24 g/m*3 -11.16 C 6.85833 km/h
180 10-02-2021 11:00:00 -6.46667 C 2.39 g/m*3 -9.74 C 6.58333 km/h
181 10-02-2021 12:00:00 -4.59167 C 2.59 g/m*3 -8.78 C 9.93333 km/h
182 10-02-2021 13:00:00 -3.61667 C 2.74 g/m*3 -7.89 C 10.9 km/h
183 10-02-2021 14:00:00 -2.65 C 2.83 g/m*3 -7.41 C 13.7 km/h
184 10-02-2021 15:00:00 -2.16667 C 2.89 g/m*3 -5.65 C 9.125 km/h
185 10-02-2021 16:00:00 -1.525 C 2.98 g/m*3 -5.08 C 9.8 km/h
186 10-02-2021 17:00:00 -1.85 C 3.08 g/m*3 -3.73 C 5.09167 km/h
187 10-02-2021 18:00:00 -2.6 C 3 g/m*3 -5.03 C 6.04167 km/h
188 10-02-2021 19:00:00 -3.74167 C 3.02 g/m*3 -3.74 C 0.53333 km/h
189 10-02-2021 20:00:00 -2.84167 C 3.21 g/m*3 -6.49 C 9.275 km/h
190 10-02-2021 21:00:00 -2.65833 C 3.28 g/m*3 -5.69 C 7.50833 km/h
191 10-02-2021 22:00:00 -3.05 C 3.28 g/m*3 -3.05 C 2.26667 km/h
192 10-02-2021 23:00:00 -3.11667 C 3.3 g/m*3 -3.12 C 3.06667 km/h
193 11-02-2021 00:00:00 -2.94167 C 3.31 g/m*3 -2.94 C 3.6 km/h
194 11-02-2021 01:00:00 -2.98333 C 3.3 g/m*3 -2.98 C 4.15 km/h
195 11-02-2021 02:00:00 -3.10833 C 3.3 g/m*3 -3.11 C 4.69167 km/h
196 11-02-2021 03:00:00 -3.275 C 3.3 g/m*3 -3.28 C 2.66667 km/h
197 11-02-2021 04:00:00 -3.64167 C 3.24 g/m*3 -5.96 C 5.475 km/h
198 11-02-2021 05:00:00 -4.2 C 3.17 g/m*3 -4.2 C 1.46667 km/h
199 11-02-2021 06:00:00 -4.81667 C 3.05 g/m*3 -4.82 C 1.6 km/h
200 11-02-2021 07:00:00 -5.86667 C 2.88 g/m*3 -5.87 C 1.2 km/h
Sensor: Nr:Datum:Temp:Abs-Feuchte:Windchill:Wind:
Aussen-T/F 201 11-02-2021 08:00:00 -6.35 C 2.82 g/m*3 -6.35 C 0.8 km/h
202 11-02-2021 09:00:00 -6.11667 C 2.89 g/m*3 -6.12 C 0.8 km/h
203 11-02-2021 10:00:00 -5.55 C 3.01 g/m*3 -5.55 C 1.2 km/h
204 11-02-2021 11:00:00 -4.425 C 3.26 g/m*3 -4.43 C 2.53333 km/h
205 11-02-2021 12:00:00 -2.89167 C 3.54 g/m*3 -2.89 C 0 km/h
206 11-02-2021 13:00:00 -1.04167 C 3.56 g/m*3 -1.04 C 2.26667 km/h
207 11-02-2021 14:00:00 0.03333 C 3.38 g/m*3 -2.26 C 6.71667 km/h
208 11-02-2021 15:00:00 0.55 C 3.26 g/m*3 -1.29 C 5.74167 km/h
209 11-02-2021 16:00:00 -0.33333 C 3.31 g/m*3 -0.33 C 1.46667 km/h
210 11-02-2021 17:00:00 -1.23333 C 3.4 g/m*3 -1.23 C 3.46667 km/h
211 11-02-2021 18:00:00 -2.19167 C 3.41 g/m*3 -2.19 C 2.53333 km/h
212 11-02-2021 19:00:00 -2.81667 C 3.3 g/m*3 -2.82 C 4.13333 km/h
213 11-02-2021 20:00:00 -3.95 C 3.11 g/m*3 -3.95 C 4.26667 km/h
214 11-02-2021 21:00:00 -3.69167 C 3.19 g/m*3 -3.69 C 2.26667 km/h
215 11-02-2021 22:00:00 -3.84167 C 3.18 g/m*3 -3.84 C 2.8 km/h
216 11-02-2021 23:00:00 -4.19167 C 2.98 g/m*3 -4.19 C 4.40833 km/h
217 12-02-2021 00:00:00 -4.94167 C 2.77 g/m*3 -4.94 C 4.69167 km/h
218 12-02-2021 01:00:00 -5.375 C 2.7 g/m*3 -5.38 C 2.66667 km/h
219 12-02-2021 02:00:00 -6.46667 C 2.6 g/m*3 -6.47 C 2.13333 km/h
220 12-02-2021 03:00:00 -6.825 C 2.6 g/m*3 -6.83 C 3.075 km/h
221 12-02-2021 04:00:00 -6.03333 C 2.75 g/m*3 -6.03 C 2.66667 km/h
222 12-02-2021 05:00:00 -5.29167 C 2.81 g/m*3 -8.37 C 6.575 km/h
223 12-02-2021 06:00:00 -5.81667 C 2.73 g/m*3 -5.82 C 1.74167 km/h
224 12-02-2021 07:00:00 -6.825 C 2.6 g/m*3 -6.83 C 1.06667 km/h
225 12-02-2021 08:00:00 -7.38333 C 2.55 g/m*3 -7.38 C 1.33333 km/h
Sensor: Nr:Datum:Temp:Abs-Feuchte:Windchill:Wind:
Aussen-T/F 226 12-02-2021 09:00:00 -7.11667 C 2.63 g/m*3 -7.12 C 1.6 km/h
227 12-02-2021 10:00:00 -6.16667 C 2.76 g/m*3 -6.17 C 3.20833 km/h
228 12-02-2021 11:00:00 -3.975 C 2.8 g/m*3 -7.84 C 9.26667 km/h
229 12-02-2021 12:00:00 -2.5 C 2.85 g/m*3 -6.89 C 12.23333 km/h
230 12-02-2021 13:00:00 -1.525 C 2.85 g/m*3 -5.67 C 12.08333 km/h
231 12-02-2021 14:00:00 -1.03333 C 2.86 g/m*3 -5.01 C 11.81667 km/h
232 12-02-2021 15:00:00 -1.00833 C 2.82 g/m*3 -5.43 C 13.83333 km/h
233 12-02-2021 16:00:00 -1.30833 C 2.83 g/m*3 -4.59 C 8.99167 km/h
234 12-02-2021 17:00:00 -1.81667 C 2.91 g/m*3 -4.55 C 7.1 km/h
235 12-02-2021 18:00:00 -3.19167 C 2.94 g/m*3 -3.19 C 4.81667 km/h
236 12-02-2021 19:00:00 -4.525 C 2.87 g/m*3 -4.53 C 4.13333 km/h
237 12-02-2021 20:00:00 -5.2 C 2.76 g/m*3 -5.2 C 4.55 km/h
238 12-02-2021 21:00:00 -5.84167 C 2.68 g/m*3 -5.84 C 3.86667 km/h
239 12-02-2021 22:00:00 -6.31667 C 2.61 g/m*3 -6.32 C 3.6 km/h
240 12-02-2021 23:00:00 -6.96667 C 2.52 g/m*3 -6.97 C 3.35 km/h
241 13-02-2021 00:00:00 -7.23333 C 2.45 g/m*3 -7.23 C 3.33333 km/h
242 13-02-2021 01:00:00 -8.16667 C 2.33 g/m*3 -8.17 C 1.73333 km/h
243 13-02-2021 02:00:00 -8.54167 C 2.29 g/m*3 -8.54 C 2 km/h
244 13-02-2021 03:00:00 -8.91667 C 2.25 g/m*3 -8.92 C 3.33333 km/h
245 13-02-2021 04:00:00 -8.98333 C 2.24 g/m*3 -8.98 C 3.73333 km/h
246 13-02-2021 05:00:00 -9.275 C 2.19 g/m*3 -9.28 C 2.13333 km/h
247 13-02-2021 06:00:00 -9.30833 C 2.21 g/m*3 -9.31 C 2.8 km/h
248 13-02-2021 07:00:00 -9.20833 C 2.22 g/m*3 -9.21 C 3.06667 km/h
249 13-02-2021 08:00:00 -9.36667 C 2.2 g/m*3 -9.37 C 1.2 km/h
250 13-02-2021 09:00:00 -8.81667 C 2.33 g/m*3 -8.82 C 1.075 km/h
Sensor: Nr:Datum:Temp:Abs-Feuchte:Windchill:Wind:
Aussen-T/F 251 13-02-2021 10:00:00 -7.29167 C 2.59 g/m*3 -7.29 C 3.2 km/h
252 13-02-2021 11:00:00 -4.75833 C 2.91 g/m*3 -7.25 C 5.49167 km/h
253 13-02-2021 12:00:00 -2.29167 C 3 g/m*3 -5.59 C 8.475 km/h
254 13-02-2021 13:00:00 -0.41667 C 2.89 g/m*3 -2.73 C 6.58333 km/h
255 13-02-2021 14:00:00 0.825 C 2.53 g/m*3 -2.76 C 11.825 km/h
256 13-02-2021 15:00:00 0.76667 C 2.55 g/m*3 -1.86 C 8.05833 km/h
257 13-02-2021 16:00:00 0.76667 C 2.66 g/m*3 -1.9 C 8.19167 km/h
258 13-02-2021 17:00:00 -0.125 C 2.9 g/m*3 -0.13 C 3.6 km/h
259 13-02-2021 18:00:00 -2.71667 C 2.98 g/m*3 -2.72 C 4 km/h
260 13-02-2021 19:00:00 -4.21667 C 2.88 g/m*3 -4.22 C 3.2 km/h
261 13-02-2021 20:00:00 -4.88333 C 2.82 g/m*3 -4.88 C 3.46667 km/h
262 13-02-2021 21:00:00 -5.55833 C 2.74 g/m*3 -5.56 C 2.66667 km/h
263 13-02-2021 22:00:00 -6.19167 C 2.68 g/m*3 -6.19 C 4 km/h
264 13-02-2021 23:00:00 -6.58333 C 2.64 g/m*3 -6.58 C 2.66667 km/h
265 14-02-2021 00:00:00 -7.39167 C 2.52 g/m*3 -7.39 C 1.33333 km/h
266 14-02-2021 01:00:00 -8.10833 C 2.43 g/m*3 -8.11 C 1.2 km/h
267 14-02-2021 02:00:00 -8.21667 C 2.44 g/m*3 -8.22 C 4 km/h
268 14-02-2021 03:00:00 -7.96667 C 2.49 g/m*3 -7.97 C 2.4 km/h
269 14-02-2021 04:00:00 -8.55 C 2.38 g/m*3 -8.55 C 1.86667 km/h
270 14-02-2021 05:00:00 -8.66667 C 2.38 g/m*3 -8.67 C 2.13333 km/h
271 14-02-2021 06:00:00 -8.95 C 2.34 g/m*3 -8.95 C 1.33333 km/h
272 14-02-2021 07:00:00 -9.49167 C 2.24 g/m*3 -9.49 C 0.53333 km/h
273 14-02-2021 08:00:00 -9.31667 C 2.28 g/m*3 -9.32 C 1.73333 km/h
274 14-02-2021 09:00:00 -8.16667 C 2.51 g/m*3 -8.17 C 4.4 km/h
275 14-02-2021 10:00:00 -6.625 C 2.81 g/m*3 -6.63 C 4.4 km/h
Sensor: Nr:Datum:Temp:Abs-Feuchte:Windchill:Wind:
Aussen-T/F 276 14-02-2021 11:00:00 -4.275 C 3.31 g/m*3 -6.48 C 5.06667 km/h
277 14-02-2021 12:00:00 -1.55 C 3.72 g/m*3 -3.57 C 5.475 km/h
278 14-02-2021 13:00:00 1.44167 C 3.4 g/m*3 -0.47 C 6.28333 km/h
279 14-02-2021 14:00:00 3.7 C 2.83 g/m*3 1.34 C 9 km/h
280 14-02-2021 15:00:00 3.725 C 2.85 g/m*3 2.25 C 6.00833 km/h
281 14-02-2021 16:00:00 3.175 C 3.3 g/m*3 3.18 C 3.86667 km/h
282 14-02-2021 17:00:00 1.175 C 3.64 g/m*3 -0.4 C 5.33333 km/h
283 14-02-2021 18:00:00 -0.13333 C 3.57 g/m*3 -0.13 C 4.53333 km/h
284 14-02-2021 19:00:00 -0.38333 C 3.57 g/m*3 -0.38 C 4.66667 km/h
285 14-02-2021 20:00:00 -0.825 C 3.43 g/m*3 -0.83 C 4.66667 km/h
286 14-02-2021 21:00:00 -1.56667 C 3.4 g/m*3 -1.57 C 3.73333 km/h
287 14-02-2021 22:00:00 -1.86667 C 3.37 g/m*3 -1.87 C 3.06667 km/h
288 14-02-2021 23:00:00 -1.95833 C 3.15 g/m*3 -1.96 C 3.6 km/h
289 15-02-2021 00:00:00 -1.79167 C 3.05 g/m*3 -1.79 C 4 km/h
290 15-02-2021 01:00:00 -2.36667 C 3 g/m*3 -2.37 C 3.6 km/h
291 15-02-2021 02:00:00 -2.40833 C 2.99 g/m*3 -2.41 C 4 km/h
292 15-02-2021 03:00:00 -1.96667 C 2.9 g/m*3 -3.93 C 5.225 km/h
293 15-02-2021 04:00:00 -0.44167 C 2.82 g/m*3 -4.07 C 10.88333 km/h
294 15-02-2021 05:00:00 -0.39167 C 2.84 g/m*3 -2.65 C 6.43333 km/h
295 15-02-2021 06:00:00 -0.43333 C 2.92 g/m*3 -0.43 C 3.74167 km/h
296 15-02-2021 07:00:00 -0.325 C 2.96 g/m*3 -0.33 C 2.80833 km/h
297 15-02-2021 08:00:00 -0.15833 C 3.05 g/m*3 -0.16 C 2.80833 km/h
298 15-02-2021 09:00:00 0.475 C 3.12 g/m*3 0.48 C 3.35 km/h
299 15-02-2021 10:00:00 1.45 C 3.28 g/m*3 1.45 C 2.26667 km/h
300 15-02-2021 11:00:00 2.13333 C 3.45 g/m*3 2.13 C 3.06667 km/h
Sensor: Nr:Datum:Temp:Abs-Feuchte:Windchill:Wind:
Aussen-T/F 301 15-02-2021 12:00:00 1.88333 C 4.27 g/m*3 1.88 C 2.66667 km/h
302 15-02-2021 13:00:00 1.75 C 4.81 g/m*3 1.75 C 0.26667 km/h
303 15-02-2021 14:00:00 1.825 C 5.01 g/m*3 1.83 C 1.06667 km/h
304 15-02-2021 15:00:00 2.125 C 5.21 g/m*3 2.13 C 0.4 km/h
305 15-02-2021 16:00:00 2.25 C 5.26 g/m*3 2.25 C 0.4 km/h
306 15-02-2021 17:00:00 2.05 C 5.2 g/m*3 2.05 C 1.46667 km/h
307 15-02-2021 18:00:00 1.80833 C 5.16 g/m*3 1.81 C 1.06667 km/h
308 15-02-2021 19:00:00 1.75833 C 5.17 g/m*3 1.76 C 0 km/h
309 15-02-2021 20:00:00 1.80833 C 5.21 g/m*3 1.81 C 0.13333 km/h
310 15-02-2021 21:00:00 1.99167 C 5.3 g/m*3 1.99 C 0.53333 km/h
311 15-02-2021 22:00:00 2.94167 C 5.69 g/m*3 2.94 C 3.20833 km/h
312 15-02-2021 23:00:00 4 C 6.1 g/m*3 1.73 C 8.86667 km/h
313 16-02-2021 00:00:00 4.13333 C 6.09 g/m*3 2.54 C 6.575 km/h
314 16-02-2021 01:00:00 4.03333 C 6.05 g/m*3 4.03 C 2 km/h
315 16-02-2021 02:00:00 4.075 C 6.11 g/m*3 4.08 C 2.93333 km/h
316 16-02-2021 03:00:00 4.01667 C 6.11 g/m*3 4.02 C 2.93333 km/h
317 16-02-2021 04:00:00 3.95 C 6.08 g/m*3 3.95 C 0.66667 km/h
318 16-02-2021 05:00:00 3.94167 C 6.08 g/m*3 3.94 C 0 km/h
319 16-02-2021 06:00:00 3.78333 C 6.02 g/m*3 3.78 C 0 km/h
320 16-02-2021 07:00:00 3.34167 C 5.84 g/m*3 3.34 C 0 km/h
321 16-02-2021 08:00:00 3.00833 C 5.73 g/m*3 3.01 C 0.53333 km/h
322 16-02-2021 09:00:00 3.99167 C 6.16 g/m*3 3.99 C 0 km/h
323 16-02-2021 10:00:00 5.025 C 6.6 g/m*3 5.03 C 0 km/h
324 16-02-2021 11:00:00 6.3 C 7.18 g/m*3 6.3 C 0.13333 km/h
325 16-02-2021 12:00:00 7.41667 C 7.69 g/m*3 7.42 C 0 km/h
Sensor: Nr:Datum:Temp:Abs-Feuchte:Windchill:Wind:
Aussen-T/F 326 16-02-2021 13:00:00 8.89167 C 8.3 g/m*3 8.89 C 0.53333 km/h
327 16-02-2021 14:00:00 9.775 C 8.56 g/m*3 9.78 C 0.93333 km/h
328 16-02-2021 15:00:00 9.96667 C 8.23 g/m*3 9.97 C 3.2 km/h
329 16-02-2021 16:00:00 8.75833 C 7.45 g/m*3 8.76 C 3.73333 km/h
330 16-02-2021 17:00:00 6.99167 C 6.91 g/m*3 6.13 C 5.61667 km/h
331 16-02-2021 18:00:00 5.89167 C 6.53 g/m*3 5.89 C 4.94167 km/h
332 16-02-2021 19:00:00 5.4 C 6.45 g/m*3 4.46 C 5.20833 km/h
333 16-02-2021 20:00:00 5.08333 C 6.38 g/m*3 5.08 C 3.73333 km/h
334 16-02-2021 21:00:00 5.16667 C 6.47 g/m*3 5.17 C 1.6 km/h
335 16-02-2021 22:00:00 5.75 C 6.78 g/m*3 5.75 C 1.86667 km/h
336 16-02-2021 23:00:00 6.85 C 7.37 g/m*3 5.8 C 6.15833 km/h
337 17-02-2021 00:00:00 7.325 C 7.52 g/m*3 5.13 C 11.68333 km/h
338 17-02-2021 01:00:00 6.15 C 6.86 g/m*3 5.36 C 5.08333 km/h
339 17-02-2021 02:00:00 6.31667 C 7.09 g/m*3 4.84 C 7.39167 km/h
340 17-02-2021 03:00:00 6.55833 C 7.12 g/m*3 6.56 C 4.675 km/h
341 17-02-2021 04:00:00 5.275 C 6.54 g/m*3 5.28 C 4.8 km/h
342 17-02-2021 05:00:00 5.35833 C 6.67 g/m*3 4.41 C 5.20833 km/h
343 17-02-2021 06:00:00 5.35 C 6.67 g/m*3 5.35 C 4.14167 km/h
344 17-02-2021 07:00:00 4.86667 C 6.47 g/m*3 4.87 C 3.46667 km/h
345 17-02-2021 08:00:00 5.575 C 6.82 g/m*3 4.66 C 5.20833 km/h
346 17-02-2021 09:00:00 7.05 C 7.44 g/m*3 5.56 C 7.91667 km/h
347 17-02-2021 10:00:00 8.7 C 7.84 g/m*3 6.6 C 12.89167 km/h
348 17-02-2021 11:00:00 9.71667 C 7.9 g/m*3 7.71 C 13.83333 km/h
349 17-02-2021 12:00:00 10.4 C 7.99 g/m*3 8.9 C 11.3 km/h
350 17-02-2021 13:00:00 10.65 C 7.88 g/m*3 9.23 C 11.15833 km/h
Sensor: Nr:Datum:Temp:Abs-Feuchte:Windchill:Wind:
Aussen-T/F 351 17-02-2021 14:00:00 10.85833 C 8.03 g/m*3 9.48 C 11.15833 km/h
352 17-02-2021 15:00:00 11.06667 C 8.01 g/m*3 11.07 C 8.6 km/h
353 17-02-2021 16:00:00 10.81667 C 8.09 g/m*3 10.15 C 7.1 km/h
354 17-02-2021 17:00:00 9.55833 C 7.6 g/m*3 9.07 C 5.60833 km/h
355 17-02-2021 18:00:00 7.375 C 7.1 g/m*3 7.38 C 4.93333 km/h
356 17-02-2021 19:00:00 6.75833 C 7.02 g/m*3 6.76 C 3.73333 km/h
357 17-02-2021 20:00:00 5.89167 C 6.63 g/m*3 5.89 C 1.06667 km/h
358 17-02-2021 21:00:00 4.425 C 6.09 g/m*3 4.43 C 1.86667 km/h
359 17-02-2021 22:00:00 3.29167 C 5.7 g/m*3 3.29 C 0.26667 km/h
360 17-02-2021 23:00:00 2.375 C 5.39 g/m*3 2.38 C 0 km/h
361 18-02-2021 00:00:00 1.64167 C 5.15 g/m*3 1.64 C 0 km/h
362 18-02-2021 01:00:00 1.08333 C 4.96 g/m*3 1.08 C 0.13333 km/h
363 18-02-2021 02:00:00 0.6 C 4.82 g/m*3 0.6 C 0 km/h
364 18-02-2021 03:00:00 0.08333 C 4.67 g/m*3 0.08 C 0 km/h
365 18-02-2021 04:00:00 -0.01667 C 4.65 g/m*3 -0.02 C 0 km/h
366 18-02-2021 05:00:00 -0.26667 C 4.57 g/m*3 -0.27 C 0 km/h
367 18-02-2021 06:00:00 -0.46667 C 4.5 g/m*3 -0.47 C 0 km/h
368 18-02-2021 07:00:00 -0.31667 C 4.56 g/m*3 -0.32 C 0 km/h
369 18-02-2021 08:00:00 0.30833 C 4.8 g/m*3 0.31 C 0.4 km/h
370 18-02-2021 09:00:00 0.81667 C 4.97 g/m*3 0.82 C 0.26667 km/h
371 18-02-2021 10:00:00 2.075 C 5.42 g/m*3 2.08 C 1.2 km/h
372 18-02-2021 11:00:00 3.725 C 6.09 g/m*3 3.73 C 0.53333 km/h
373 18-02-2021 12:00:00 5.55 C 6.9 g/m*3 5.55 C 0.13333 km/h
374 18-02-2021 13:00:00 7.475 C 7.57 g/m*3 7.48 C 1.33333 km/h
375 18-02-2021 14:00:00 8.58333 C 7.12 g/m*3 8.58 C 4.8 km/h
Sensor: Nr:Datum:Temp:Abs-Feuchte:Windchill:Wind:
Aussen-T/F 376 18-02-2021 15:00:00 8.125 C 7.08 g/m*3 8.13 C 0.66667 km/h
377 18-02-2021 16:00:00 8.48333 C 7.39 g/m*3 8.48 C 3.88333 km/h
378 18-02-2021 17:00:00 8.25833 C 7.14 g/m*3 8.26 C 2.66667 km/h
379 18-02-2021 18:00:00 6.88333 C 6.88 g/m*3 6.88 C 3.2 km/h
380 18-02-2021 19:00:00 6.91667 C 6.94 g/m*3 6.92 C 4 km/h
381 18-02-2021 20:00:00 7.375 C 7.13 g/m*3 7.38 C 3.06667 km/h
382 18-02-2021 21:00:00 8.15 C 7.79 g/m*3 8.15 C 4.41667 km/h
383 18-02-2021 22:00:00 8.15833 C 7.8 g/m*3 6.52 C 9.51667 km/h
384 18-02-2021 23:00:00 6.80833 C 6.93 g/m*3 5.41 C 7.375 km/h
385 19-02-2021 00:00:00 5.29167 C 6.31 g/m*3 3.23 C 9 km/h
386 19-02-2021 01:00:00 5.11667 C 6.18 g/m*3 3.19 C 8.33333 km/h
387 19-02-2021 02:00:00 4.01667 C 5.85 g/m*3 2.88 C 5.20833 km/h
388 19-02-2021 03:00:00 3.65833 C 5.81 g/m*3 2.48 C 5.20833 km/h
389 19-02-2021 04:00:00 3.54167 C 5.82 g/m*3 2.08 C 5.9 km/h
390 19-02-2021 05:00:00 4.125 C 6.01 g/m*3 2.75 C 5.90833 km/h
391 19-02-2021 06:00:00 3.25833 C 5.65 g/m*3 3.26 C 2 km/h
392 19-02-2021 07:00:00 3.65 C 5.9 g/m*3 3.65 C 1.33333 km/h
393 19-02-2021 08:00:00 4.2 C 6.15 g/m*3 4.2 C 1.73333 km/h
394 19-02-2021 09:00:00 5.23333 C 6.54 g/m*3 5.23 C 0.53333 km/h
395 19-02-2021 10:00:00 6.275 C 6.86 g/m*3 6.28 C 1.46667 km/h
396 19-02-2021 11:00:00 7.65 C 7.21 g/m*3 7.65 C 0.53333 km/h
397 19-02-2021 12:00:00 9 C 7.52 g/m*3 9 C 0.53333 km/h
398 19-02-2021 13:00:00 10.01667 C 7.63 g/m*3 10.02 C 0.4 km/h
399 19-02-2021 14:00:00 11.09167 C 7.79 g/m*3 11.09 C 3.08333 km/h
400 19-02-2021 15:00:00 11.80833 C 7.56 g/m*3 11.81 C 6.99167 km/h
Sensor: Nr:Datum:Temp:Abs-Feuchte:Windchill:Wind:
Aussen-T/F 401 19-02-2021 16:00:00 11.85 C 7.51 g/m*3 11.85 C 6.30833 km/h
402 19-02-2021 17:00:00 10.28333 C 7.34 g/m*3 10.28 C 4.66667 km/h
403 19-02-2021 18:00:00 7.3 C 6.76 g/m*3 6.37 C 6 km/h
404 19-02-2021 19:00:00 6.275 C 6.64 g/m*3 6.28 C 4.26667 km/h
405 19-02-2021 20:00:00 5.39167 C 6.35 g/m*3 5.39 C 0.8 km/h
406 19-02-2021 21:00:00 4.175 C 5.96 g/m*3 4.18 C 0 km/h
407 19-02-2021 22:00:00 3.71667 C 5.86 g/m*3 3.72 C 0.26667 km/h
408 19-02-2021 23:00:00 3.19167 C 5.69 g/m*3 3.19 C 0 km/h
409 20-02-2021 00:00:00 2.83333 C 5.59 g/m*3 2.83 C 0 km/h
410 20-02-2021 01:00:00 2.48333 C 5.47 g/m*3 2.48 C 0 km/h
411 20-02-2021 02:00:00 2.21667 C 5.39 g/m*3 2.22 C 0 km/h
412 20-02-2021 03:00:00 2.125 C 5.38 g/m*3 2.13 C 0 km/h
413 20-02-2021 04:00:00 1.58333 C 5.19 g/m*3 1.58 C 0 km/h
414 20-02-2021 05:00:00 1.20833 C 5.05 g/m*3 1.21 C 0 km/h
415 20-02-2021 06:00:00 0.85 C 4.93 g/m*3 0.85 C 0.26667 km/h
416 20-02-2021 07:00:00 0.8 C 4.92 g/m*3 0.8 C 0.13333 km/h
417 20-02-2021 08:00:00 1.25833 C 5.12 g/m*3 1.26 C 0 km/h
418 20-02-2021 09:00:00 1.89167 C 5.35 g/m*3 1.89 C 0 km/h
419 20-02-2021 10:00:00 3.41667 C 5.95 g/m*3 3.42 C 2 km/h
420 20-02-2021 11:00:00 8.10833 C 8.16 g/m*3 8.11 C 3.2 km/h
421 20-02-2021 12:00:00 11.60833 C 9.07 g/m*3 11.61 C 7.51667 km/h
422 20-02-2021 13:00:00 14.96667 C 8.64 g/m*3 14.97 C 7.25 km/h
423 20-02-2021 14:00:00 16.40833 C 8.6 g/m*3 16.41 C 6.83333 km/h
424 20-02-2021 15:00:00 16.55833 C 8.67 g/m*3 16.56 C 3.75 km/h
425 20-02-2021 16:00:00 16.01667 C 8.98 g/m*3 16.02 C 2.4 km/h
Sensor: Nr:Datum:Temp:Abs-Feuchte:Windchill:Wind:
Aussen-T/F 426 20-02-2021 17:00:00 14.09167 C 9.02 g/m*3 14.09 C 4.13333 km/h
427 20-02-2021 18:00:00 10.94167 C 8.29 g/m*3 10.52 C 6.14167 km/h
428 20-02-2021 19:00:00 9.39167 C 7.94 g/m*3 8.7 C 6.275 km/h
429 20-02-2021 20:00:00 8.46667 C 7.67 g/m*3 7.67 C 6.14167 km/h
430 20-02-2021 21:00:00 7.675 C 7.36 g/m*3 7.68 C 3.86667 km/h
431 20-02-2021 22:00:00 6.575 C 6.91 g/m*3 6.58 C 0.8 km/h
432 20-02-2021 23:00:00 5.825 C 6.66 g/m*3 5.83 C 1.06667 km/h
433 21-02-2021 00:00:00 4.53333 C 6.12 g/m*3 4.53 C 0 km/h
434 21-02-2021 01:00:00 3.54167 C 5.81 g/m*3 3.54 C 0.53333 km/h
435 21-02-2021 02:00:00 3.275 C 5.74 g/m*3 3.28 C 0 km/h
436 21-02-2021 03:00:00 3.04167 C 5.66 g/m*3 3.04 C 0 km/h
437 21-02-2021 04:00:00 2.325 C 5.42 g/m*3 2.33 C 0.26667 km/h
438 21-02-2021 05:00:00 2.05 C 5.33 g/m*3 2.05 C 0.13333 km/h
439 21-02-2021 06:00:00 1.70833 C 5.23 g/m*3 1.71 C 0.13333 km/h
440 21-02-2021 07:00:00 1.19167 C 5.05 g/m*3 1.19 C 0.13333 km/h
441 21-02-2021 08:00:00 1.21667 C 5.06 g/m*3 1.22 C 0.13333 km/h
442 21-02-2021 09:00:00 2.01667 C 5.38 g/m*3 2.02 C 0.53333 km/h
443 21-02-2021 10:00:00 3.925 C 6.15 g/m*3 3.93 C 0.8 km/h
444 21-02-2021 11:00:00 7.24167 C 7.71 g/m*3 7.24 C 1.06667 km/h
445 21-02-2021 12:00:00 11.425 C 8.78 g/m*3 11.43 C 4.14167 km/h
446 21-02-2021 13:00:00 15.85 C 7.97 g/m*3 15.85 C 6.31667 km/h
447 21-02-2021 14:00:00 17.91667 C 7.46 g/m*3 17.92 C 5.76667 km/h
448 21-02-2021 15:00:00 17.48333 C 7.46 g/m*3 17.48 C 4.55 km/h
449 21-02-2021 16:00:00 16.59167 C 7.66 g/m*3 16.59 C 5.06667 km/h
450 21-02-2021 17:00:00 15.05833 C 7.71 g/m*3 15.06 C 6.68333 km/h
Sensor: Nr:Datum:Temp:Abs-Feuchte:Windchill:Wind:
Aussen-T/F 451 21-02-2021 18:00:00 11.95833 C 7.5 g/m*3 11.96 C 8.21667 km/h
452 21-02-2021 19:00:00 11.75833 C 7.57 g/m*3 11.76 C 9.425 km/h
453 21-02-2021 20:00:00 10.83333 C 7.4 g/m*3 10.26 C 6.69167 km/h
454 21-02-2021 21:00:00 8.63333 C 6.85 g/m*3 8.63 C 1.46667 km/h
455 21-02-2021 22:00:00 6.55833 C 6.45 g/m*3 6.56 C 0 km/h
456 21-02-2021 23:00:00 5.4 C 6.19 g/m*3 5.4 C 0 km/h
457 22-02-2021 00:00:00 4.18333 C 5.85 g/m*3 4.18 C 0 km/h
458 22-02-2021 01:00:00 3.50833 C 5.7 g/m*3 3.51 C 0.53333 km/h
459 22-02-2021 02:00:00 2.675 C 5.41 g/m*3 2.68 C 0 km/h
460 22-02-2021 03:00:00 1.88333 C 5.18 g/m*3 1.88 C 0 km/h
461 22-02-2021 04:00:00 1.40833 C 5.05 g/m*3 1.41 C 0.13333 km/h
462 22-02-2021 05:00:00 1.43333 C 5.09 g/m*3 1.43 C 2.4 km/h
463 22-02-2021 06:00:00 1.05833 C 4.96 g/m*3 1.06 C 0.13333 km/h
464 22-02-2021 07:00:00 1.25 C 5.07 g/m*3 1.25 C 1.06667 km/h
465 22-02-2021 08:00:00 1.96667 C 5.32 g/m*3 1.97 C 1.33333 km/h
466 22-02-2021 09:00:00 3.15833 C 5.79 g/m*3 3.16 C 0 km/h
467 22-02-2021 10:00:00 4.85833 C 6.52 g/m*3 4.86 C 0.13333 km/h
468 22-02-2021 11:00:00 6.3 C 6.93 g/m*3 6.3 C 0.93333 km/h
469 22-02-2021 12:00:00 7.90833 C 7.18 g/m*3 7.91 C 1.2 km/h
470 22-02-2021 13:00:00 9.33333 C 7.5 g/m*3 9.33 C 1.73333 km/h
471 22-02-2021 14:00:00 11.34167 C 8.03 g/m*3 11.34 C 0 km/h
472 22-02-2021 15:00:00 13.69167 C 8.28 g/m*3 13.69 C 0.8 km/h
473 22-02-2021 16:00:00 14.44167 C 8.72 g/m*3 14.44 C 0 km/h
474 22-02-2021 17:00:00 12.63333 C 8.37 g/m*3 12.63 C 2.93333 km/h
475 22-02-2021 18:00:00 11.19167 C 8.1 g/m*3 11.19 C 1.6 km/h
Sensor: Nr:Datum:Temp:Abs-Feuchte:Windchill:Wind:
Aussen-T/F 476 22-02-2021 19:00:00 10.50833 C 7.93 g/m*3 10.51 C 0 km/h
477 22-02-2021 20:00:00 10.175 C 7.9 g/m*3 10.18 C 0 km/h
478 22-02-2021 21:00:00 9.13333 C 7.5 g/m*3 9.13 C 0 km/h
479 22-02-2021 22:00:00 7.86667 C 7.21 g/m*3 7.87 C 0 km/h
480 22-02-2021 23:00:00 7.70833 C 7.3 g/m*3 7.71 C 0 km/h
481 23-02-2021 00:00:00 7.375 C 7.19 g/m*3 7.38 C 0 km/h
482 23-02-2021 01:00:00 7.2 C 7.18 g/m*3 7.2 C 0 km/h
483 23-02-2021 02:00:00 7.26667 C 7.25 g/m*3 7.27 C 0 km/h
484 23-02-2021 03:00:00 7.38333 C 7.32 g/m*3 7.38 C 0 km/h
485 23-02-2021 04:00:00 7.36667 C 7.35 g/m*3 7.37 C 0 km/h
486 23-02-2021 05:00:00 7.16667 C 7.24 g/m*3 7.17 C 0 km/h
487 23-02-2021 06:00:00 6.33333 C 6.89 g/m*3 6.33 C 0 km/h
488 23-02-2021 07:00:00 6.83333 C 7.27 g/m*3 6.83 C 1.2 km/h
489 23-02-2021 08:00:00 7.975 C 7.78 g/m*3 7.98 C 1.73333 km/h
490 23-02-2021 09:00:00 8.91667 C 8.13 g/m*3 8.92 C 0.13333 km/h
491 23-02-2021 10:00:00 10.43333 C 8.69 g/m*3 10.43 C 0.66667 km/h
492 23-02-2021 11:00:00 13.50833 C 9.58 g/m*3 13.51 C 1.2 km/h
493 23-02-2021 12:00:00 16.23333 C 10.08 g/m*3 16.23 C 5.23333 km/h
494 23-02-2021 13:00:00 18.51667 C 9.73 g/m*3 18.52 C 10.63333 km/h
495 23-02-2021 14:00:00 19.725 C 9.76 g/m*3 19.73 C 6.43333 km/h
496 23-02-2021 15:00:00 19.70833 C 9.71 g/m*3 19.71 C 8.19167 km/h
497 23-02-2021 16:00:00 19.66667 C 9.58 g/m*3 19.67 C 4.26667 km/h
498 23-02-2021 17:00:00 18.21667 C 9.46 g/m*3 18.22 C 5.88333 km/h
499 23-02-2021 18:00:00 14.58333 C 9.24 g/m*3 14.58 C 6.4 km/h
500 23-02-2021 19:00:00 12.85 C 9.03 g/m*3 12.85 C 4.66667 km/h
Sensor: Nr:Datum:Temp:Abs-Feuchte:Windchill:Wind:
Aussen-T/F 501 23-02-2021 20:00:00 11.35 C 8.65 g/m*3 11.35 C 1.06667 km/h
502 23-02-2021 21:00:00 10.10833 C 8.33 g/m*3 10.11 C 0 km/h
503 23-02-2021 22:00:00 9.25 C 8.03 g/m*3 9.25 C 0 km/h
504 23-02-2021 23:00:00 8.29167 C 7.7 g/m*3 8.29 C 0.4 km/h
505 24-02-2021 00:00:00 7.91667 C 7.65 g/m*3 7.92 C 0.53333 km/h
506 24-02-2021 01:00:00 7.1 C 7.27 g/m*3 7.1 C 0.13333 km/h
507 24-02-2021 02:00:00 6.45833 C 7.02 g/m*3 6.46 C 0 km/h
508 24-02-2021 03:00:00 5.96667 C 6.86 g/m*3 5.97 C 0 km/h
509 24-02-2021 04:00:00 5.5 C 6.67 g/m*3 5.5 C 0 km/h
510 24-02-2021 05:00:00 5.11667 C 6.51 g/m*3 5.12 C 0 km/h
511 24-02-2021 06:00:00 4.65833 C 6.34 g/m*3 4.66 C 0 km/h
512 24-02-2021 07:00:00 4.79167 C 6.43 g/m*3 4.79 C 0.4 km/h
513 24-02-2021 08:00:00 5.55 C 6.8 g/m*3 5.55 C 0.4 km/h
514 24-02-2021 09:00:00 6.575 C 7.31 g/m*3 6.58 C 0.26667 km/h
515 24-02-2021 10:00:00 7.44167 C 7.73 g/m*3 7.44 C 0 km/h
516 24-02-2021 11:00:00 9.74167 C 8.97 g/m*3 9.74 C 0 km/h
517 24-02-2021 12:00:00 13.26667 C 10.67 g/m*3 13.27 C 0 km/h
518 24-02-2021 13:00:00 17.18333 C 10.55 g/m*3 17.18 C 6.025 km/h
519 24-02-2021 14:00:00 18.73333 C 10.36 g/m*3 18.73 C 4.28333 km/h
520 24-02-2021 15:00:00 18.79167 C 10.41 g/m*3 18.79 C 1.475 km/h
521 24-02-2021 16:00:00 18.89167 C 10.34 g/m*3 18.89 C 0.13333 km/h
522 24-02-2021 17:00:00 16.73333 C 9.86 g/m*3 16.73 C 0.93333 km/h
523 24-02-2021 18:00:00 13.725 C 9.11 g/m*3 13.73 C 0.26667 km/h
524 24-02-2021 19:00:00 11.96667 C 8.69 g/m*3 11.97 C 0 km/h
525 24-02-2021 20:00:00 10.1 C 8.15 g/m*3 10.1 C 0 km/h
Sensor: Nr:Datum:Temp:Abs-Feuchte:Windchill:Wind:
Aussen-T/F 526 24-02-2021 21:00:00 8.825 C 7.84 g/m*3 8.82 C 0 km/h
527 24-02-2021 22:00:00 8.05833 C 7.62 g/m*3 8.06 C 0 km/h
528 24-02-2021 23:00:00 7.33333 C 7.36 g/m*3 7.33 C 0 km/h
529 25-02-2021 00:00:00 6.60833 C 7.09 g/m*3 6.61 C 0.13333 km/h
530 25-02-2021 01:00:00 6.15833 C 6.92 g/m*3 6.16 C 0.53333 km/h
531 25-02-2021 02:00:00 5.61667 C 6.72 g/m*3 5.62 C 0 km/h
532 25-02-2021 03:00:00 5.19167 C 6.54 g/m*3 5.19 C 0 km/h
533 25-02-2021 04:00:00 4.475 C 6.23 g/m*3 4.47 C 0 km/h
534 25-02-2021 05:00:00 4.175 C 6.14 g/m*3 4.18 C 0.13333 km/h
535 25-02-2021 06:00:00 3.76667 C 6 g/m*3 3.77 C 0 km/h
536 25-02-2021 07:00:00 3.33333 C 5.84 g/m*3 3.33 C 0 km/h
537 25-02-2021 08:00:00 3.74167 C 6 g/m*3 3.74 C 0 km/h
538 25-02-2021 09:00:00 4.56667 C 6.39 g/m*3 4.57 C 0 km/h
539 25-02-2021 10:00:00 6.4 C 7.23 g/m*3 6.4 C 0.4 km/h
540 25-02-2021 11:00:00 9.25833 C 8.68 g/m*3 9.26 C 1.33333 km/h
541 25-02-2021 12:00:00 13.89167 C 8.89 g/m*3 13.89 C 1.2 km/h
542 25-02-2021 13:00:00 17.64167 C 8.88 g/m*3 17.64 C 1.73333 km/h
543 25-02-2021 14:00:00 19.93333 C 8.88 g/m*3 19.93 C 2.53333 km/h
544 25-02-2021 15:00:00 18.975 C 8.53 g/m*3 18.98 C 5.475 km/h
545 25-02-2021 16:00:00 18.51667 C 8.05 g/m*3 18.52 C 3.74167 km/h
546 25-02-2021 17:00:00 15.69167 C 7.79 g/m*3 15.69 C 6.55 km/h
547 25-02-2021 18:00:00 12.9 C 7.49 g/m*3 12.9 C 5.6 km/h
548 25-02-2021 19:00:00 11.68333 C 7.31 g/m*3 11.68 C 2.13333 km/h
549 25-02-2021 20:00:00 10.78333 C 7.36 g/m*3 10.78 C 0.8 km/h
550 25-02-2021 21:00:00 10.03333 C 7.16 g/m*3 10.03 C 3.34167 km/h
Sensor: Nr:Datum:Temp:Abs-Feuchte:Windchill:Wind:
Aussen-T/F 551 25-02-2021 22:00:00 8.75833 C 6.83 g/m*3 8.76 C 0.4 km/h
552 25-02-2021 23:00:00 7.2 C 6.6 g/m*3 7.2 C 1.33333 km/h
553 26-02-2021 00:00:00 6.60833 C 6.59 g/m*3 6.61 C 1.73333 km/h
554 26-02-2021 01:00:00 6.425 C 6.64 g/m*3 6.43 C 2.53333 km/h
555 26-02-2021 02:00:00 6.38333 C 6.67 g/m*3 6.38 C 0.8 km/h
556 26-02-2021 03:00:00 7 C 6.9 g/m*3 7 C 0 km/h
557 26-02-2021 04:00:00 7.225 C 6.94 g/m*3 7.23 C 0.13333 km/h
558 26-02-2021 05:00:00 7.64167 C 7.1 g/m*3 7.64 C 3.075 km/h
559 26-02-2021 06:00:00 8.03333 C 7.35 g/m*3 7.32 C 5.63333 km/h
560 26-02-2021 07:00:00 8.38333 C 7.63 g/m*3 6.59 C 10.61667 km/h
561 26-02-2021 08:00:00 7.8 C 7.36 g/m*3 6.38 C 8.19167 km/h
562 26-02-2021 09:00:00 6.99167 C 7.01 g/m*3 5.56 C 7.64167 km/h
563 26-02-2021 10:00:00 6.63333 C 6.97 g/m*3 6.63 C 2.26667 km/h
564 26-02-2021 11:00:00 6.80833 C 7.11 g/m*3 6.81 C 3.88333 km/h
565 26-02-2021 12:00:00 7.025 C 7.23 g/m*3 7.03 C 3.60833 km/h
566 26-02-2021 13:00:00 7.50833 C 7.35 g/m*3 7.51 C 0.66667 km/h
567 26-02-2021 14:00:00 8.44167 C 7.58 g/m*3 8.44 C 1.6 km/h
568 26-02-2021 15:00:00 8.76667 C 7.71 g/m*3 8.77 C 0.8 km/h
569 26-02-2021 16:00:00 9.29167 C 7.33 g/m*3 9.29 C 4.80833 km/h
570 26-02-2021 17:00:00 9.35 C 6.69 g/m*3 8.99 C 5.09167 km/h
571 26-02-2021 18:00:00 7.41667 C 6.16 g/m*3 7.42 C 3.20833 km/h
572 26-02-2021 19:00:00 6.50833 C 6.22 g/m*3 6.51 C 3.06667 km/h
573 26-02-2021 20:00:00 6.225 C 6.4 g/m*3 6.23 C 1.2 km/h
574 26-02-2021 21:00:00 5.475 C 6.12 g/m*3 5.48 C 3.46667 km/h
575 26-02-2021 22:00:00 3.73333 C 5.6 g/m*3 3.73 C 1.33333 km/h
Sensor: Nr:Datum:Temp:Abs-Feuchte:Windchill:Wind:
Aussen-T/F 576 26-02-2021 23:00:00 2.55833 C 5.28 g/m*3 2.56 C 0.13333 km/h
577 27-02-2021 00:00:00 1.79167 C 5.1 g/m*3 1.79 C 0.13333 km/h
578 27-02-2021 01:00:00 1.38333 C 5.01 g/m*3 1.38 C 0.13333 km/h
579 27-02-2021 02:00:00 0.85833 C 4.83 g/m*3 0.86 C 0.13333 km/h
580 27-02-2021 03:00:00 0.46667 C 4.74 g/m*3 0.47 C 0 km/h
581 27-02-2021 04:00:00 0.04167 C 4.62 g/m*3 0.04 C 0.13333 km/h
582 27-02-2021 05:00:00 -0.175 C 4.55 g/m*3 -0.18 C 0 km/h
583 27-02-2021 06:00:00 -0.40833 C 4.47 g/m*3 -0.41 C 0 km/h
584 27-02-2021 07:00:00 -0.19167 C 4.57 g/m*3 -0.19 C 0.26667 km/h
585 27-02-2021 08:00:00 1.25 C 5.08 g/m*3 1.25 C 0.4 km/h
586 27-02-2021 09:00:00 2.35833 C 5.48 g/m*3 2.36 C 0.53333 km/h
587 27-02-2021 10:00:00 3.1 C 5.75 g/m*3 3.1 C 0.66667 km/h
588 27-02-2021 11:00:00 4.31667 C 6.17 g/m*3 4.32 C 1.73333 km/h
589 27-02-2021 12:00:00 6.15 C 6.54 g/m*3 6.15 C 1.86667 km/h
590 27-02-2021 13:00:00 8.29167 C 6.55 g/m*3 7.02 C 7.90833 km/h
591 27-02-2021 14:00:00 9.35833 C 6.43 g/m*3 8.92 C 5.35833 km/h
592 27-02-2021 15:00:00 9.85833 C 6.34 g/m*3 9.38 C 5.74167 km/h
593 27-02-2021 16:00:00 10.59167 C 6.27 g/m*3 10.01 C 6.58333 km/h
594 27-02-2021 17:00:00 10.86667 C 6.57 g/m*3 10.87 C 2.93333 km/h
595 27-02-2021 18:00:00 7.25 C 6.22 g/m*3 7.25 C 4.4 km/h
596 27-02-2021 19:00:00 5.225 C 5.91 g/m*3 5.23 C 4.93333 km/h
597 27-02-2021 20:00:00 4.625 C 5.9 g/m*3 4.63 C 3.88333 km/h
598 27-02-2021 21:00:00 5.84167 C 6.13 g/m*3 5.84 C 3.475 km/h
599 27-02-2021 22:00:00 5.89167 C 6.03 g/m*3 4.78 C 5.9 km/h
600 27-02-2021 23:00:00 5.8 C 5.94 g/m*3 5.8 C 2.66667 km/h
Sensor: Nr:Datum:Temp:Abs-Feuchte:Windchill:Wind:
Aussen-T/F 601 28-02-2021 00:00:00 5.825 C 5.86 g/m*3 5.83 C 2.95833 km/h
602 28-02-2021 01:00:00 5.825 C 5.76 g/m*3 4.94 C 5.225 km/h
603 28-02-2021 02:00:00 5.68333 C 5.69 g/m*3 5.68 C 3.88333 km/h
604 28-02-2021 03:00:00 5.43333 C 5.48 g/m*3 4.54 C 5.09167 km/h
605 28-02-2021 04:00:00 5.06667 C 5.42 g/m*3 5.07 C 1.33333 km/h
606 28-02-2021 05:00:00 4.75833 C 5.39 g/m*3 4.76 C 2.13333 km/h
607 28-02-2021 06:00:00 3.28333 C 5.08 g/m*3 3.28 C 0.66667 km/h
608 28-02-2021 07:00:00 1.58333 C 4.75 g/m*3 1.58 C 0.26667 km/h
609 28-02-2021 08:00:00 1.09167 C 4.76 g/m*3 1.09 C 0.53333 km/h
610 28-02-2021 09:00:00 1.65833 C 4.99 g/m*3 1.66 C 1.73333 km/h
611 28-02-2021 10:00:00 3.55 C 5.45 g/m*3 3.55 C 3.73333 km/h
612 28-02-2021 11:00:00 6.55833 C 5.63 g/m*3 5.77 C 5.23333 km/h
613 28-02-2021 12:00:00 8.34167 C 5.66 g/m*3 8.34 C 4.54167 km/h
614 28-02-2021 13:00:00 9.875 C 5.78 g/m*3 9.88 C 3.6 km/h
615 28-02-2021 14:00:00 11.30833 C 5.49 g/m*3 11.31 C 10.725 km/h
616 28-02-2021 15:00:00 11.63333 C 5.25 g/m*3 11.63 C 9.54167 km/h
617 28-02-2021 16:00:00 12.35 C 5.26 g/m*3 12.35 C 6.575 km/h
618 28-02-2021 17:00:00 12.00833 C 5.87 g/m*3 12.01 C 2.275 km/h
619 28-02-2021 18:00:00 7.725 C 5.58 g/m*3 6.78 C 6.26667 km/h
620 28-02-2021 19:00:00 5.575 C 5.43 g/m*3 4.38 C 6.01667 km/h
621 28-02-2021 20:00:00 4.425 C 5.37 g/m*3 4.43 C 4.26667 km/h
622 28-02-2021 21:00:00 3.14167 C 5.17 g/m*3 3.14 C 0 km/h
623 28-02-2021 22:00:00 2.275 C 5.03 g/m*3 2.28 C 0 km/h
624 28-02-2021 23:00:00 1.24167 C 4.78 g/m*3 1.24 C 0 km/h
625 01-03-2021 00:00:00 0.76667 C 4.7 g/m*3 0.77 C 0 km/h
Sensor: Nr:Datum:Temp:Abs-Feuchte:Windchill:Wind:
Aussen-T/F 626 01-03-2021 01:00:00 0.1 C 4.53 g/m*3 0.1 C 0 km/h
627 01-03-2021 02:00:00 -0.25833 C 4.46 g/m*3 -0.26 C 0 km/h
628 01-03-2021 03:00:00 -0.55833 C 4.38 g/m*3 -0.56 C 0 km/h
629 01-03-2021 04:00:00 -0.9 C 4.29 g/m*3 -0.9 C 0 km/h
630 01-03-2021 05:00:00 -1.275 C 4.2 g/m*3 -1.27 C 0 km/h
631 01-03-2021 06:00:00 -1.475 C 4.15 g/m*3 -1.48 C 0.13333 km/h
632 01-03-2021 07:00:00 -1.71667 C 4.08 g/m*3 -1.72 C 0 km/h
633 01-03-2021 08:00:00 -1.45 C 4.17 g/m*3 -1.45 C 0 km/h
634 01-03-2021 09:00:00 -0.575 C 4.46 g/m*3 -0.57 C 0 km/h
635 01-03-2021 10:00:00 1.31667 C 5.11 g/m*3 1.32 C 2 km/h
636 01-03-2021 11:00:00 3.9 C 6 g/m*3 2.4 C 6.175 km/h
637 01-03-2021 12:00:00 7 C 6.2 g/m*3 6.15 C 5.6 km/h
638 01-03-2021 13:00:00 9.88333 C 6.3 g/m*3 9.4 C 5.75 km/h
639 01-03-2021 14:00:00 11.93333 C 6.09 g/m*3 11.93 C 4.94167 km/h
640 01-03-2021 15:00:00 12.71667 C 6.12 g/m*3 12.72 C 5.89167 km/h
641 01-03-2021 16:00:00 13.74167 C 6.4 g/m*3 13.74 C 6.71667 km/h
642 01-03-2021 17:00:00 13.53333 C 6.85 g/m*3 13.53 C 4.80833 km/h
643 01-03-2021 18:00:00 9.18333 C 6.52 g/m*3 9.18 C 0 km/h
644 01-03-2021 19:00:00 6.8 C 6.16 g/m*3 6.8 C 3.73333 km/h
645 01-03-2021 20:00:00 5.60833 C 5.93 g/m*3 5.61 C 3.46667 km/h
646 01-03-2021 21:00:00 5.14167 C 5.93 g/m*3 5.14 C 4.26667 km/h
647 01-03-2021 22:00:00 4.50833 C 5.86 g/m*3 4.51 C 3.6 km/h
648 01-03-2021 23:00:00 3.26667 C 5.48 g/m*3 3.27 C 0 km/h
649 02-03-2021 00:00:00 2.14167 C 5.18 g/m*3 2.14 C 0 km/h
650 02-03-2021 01:00:00 1.66667 C 5.08 g/m*3 1.67 C 0 km/h
Sensor: Nr:Datum:Temp:Abs-Feuchte:Windchill:Wind:
Aussen-T/F 651 02-03-2021 02:00:00 1 C 4.88 g/m*3 1 C 0 km/h
652 02-03-2021 03:00:00 0.325 C 4.66 g/m*3 0.33 C 0 km/h
653 02-03-2021 04:00:00 0.025 C 4.61 g/m*3 0.03 C 0 km/h
654 02-03-2021 05:00:00 -0.325 C 4.5 g/m*3 -0.33 C 0 km/h
655 02-03-2021 06:00:00 -0.45833 C 4.46 g/m*3 -0.46 C 0 km/h
656 02-03-2021 07:00:00 -0.58333 C 4.43 g/m*3 -0.58 C 0 km/h
657 02-03-2021 08:00:00 -0.83333 C 4.35 g/m*3 -0.83 C 0 km/h
658 02-03-2021 09:00:00 -0.08333 C 4.62 g/m*3 -0.08 C 0 km/h
659 02-03-2021 10:00:00 1.625 C 5.23 g/m*3 1.63 C 0 km/h
660 02-03-2021 11:00:00 5.225 C 6.69 g/m*3 5.23 C 0 km/h
661 02-03-2021 12:00:00 8.925 C 7.96 g/m*3 8.93 C 0 km/h
662 02-03-2021 13:00:00 13.59167 C 8.19 g/m*3 13.59 C 0 km/h
663 02-03-2021 14:00:00 16.175 C 7.49 g/m*3 16.18 C 1.2 km/h
664 02-03-2021 15:00:00 15.58333 C 7.25 g/m*3 15.58 C 2 km/h
665 02-03-2021 16:00:00 15.725 C 7.56 g/m*3 15.73 C 1.86667 km/h
666 02-03-2021 17:00:00 14.525 C 7.54 g/m*3 14.53 C 5.46667 km/h
667 02-03-2021 18:00:00 10.81667 C 6.91 g/m*3 10.27 C 6.575 km/h
668 02-03-2021 19:00:00 8.775 C 6.67 g/m*3 8.78 C 4.93333 km/h
669 02-03-2021 20:00:00 7.50833 C 6.55 g/m*3 6.86 C 5.2 km/h
670 02-03-2021 21:00:00 6.21667 C 6.24 g/m*3 6.22 C 1.86667 km/h
671 02-03-2021 22:00:00 4.79167 C 5.91 g/m*3 4.79 C 0.53333 km/h
672 02-03-2021 23:00:00 3.46667 C 5.52 g/m*3 3.47 C 0 km/h
673 03-03-2021 00:00:00 2.61667 C 5.32 g/m*3 2.62 C 0.13333 km/h
674 03-03-2021 01:00:00 2.05 C 5.19 g/m*3 2.05 C 0 km/h
675 03-03-2021 02:00:00 1.41667 C 5 g/m*3 1.42 C 0 km/h
Sensor: Nr:Datum:Temp:Abs-Feuchte:Windchill:Wind:
Aussen-T/F 676 03-03-2021 03:00:00 1.09167 C 4.91 g/m*3 1.09 C 0 km/h
677 03-03-2021 04:00:00 1.24167 C 5.01 g/m*3 1.24 C 0 km/h
678 03-03-2021 05:00:00 0.89167 C 4.89 g/m*3 0.89 C 0.53333 km/h
679 03-03-2021 06:00:00 0.83333 C 4.88 g/m*3 0.83 C 0 km/h
680 03-03-2021 07:00:00 0.75833 C 4.86 g/m*3 0.76 C 0 km/h
681 03-03-2021 08:00:00 1.54167 C 5.17 g/m*3 1.54 C 0 km/h
682 03-03-2021 09:00:00 2.4 C 5.47 g/m*3 2.4 C 0.4 km/h
683 03-03-2021 10:00:00 3.43333 C 5.83 g/m*3 3.43 C 0 km/h
684 03-03-2021 11:00:00 6.2 C 6.61 g/m*3 6.2 C 0 km/h
685 03-03-2021 12:00:00 8.9 C 6.97 g/m*3 8.9 C 0 km/h

Maximal/Minimal-Werte vom 23.02.2003 - 03.08.2020

Sensor Min Max Avg
Temp
(Aussen-T/F)
-16.4 °C
20-12-2009  01:30:01
40.4 °C
25-07-2019  16:20:00
11.23 °C

Die Daten stammen von einer Davis Vantage Pro 2 Wetter-Station und werden unter Linux mit der Software wview2wettercgi und aufbereitet. Alle Angaben erfolgen ohne Gewähr für ihre Vollständigkeit oder Richtigkeit.
Kontakt: Rainer Krienke krienke@uni-koblenz.de . Meine Webseiten an der Uni Koblenz oder privat.
Version: $Revision: 0.78 $